Location: Hamilton Branch State Park
(33.7552°N, 82.2209°W)
Time: 00:00:13
(UTC-05:00)

ITAMSAT 1 - Visible Passes

Search period start: 13 November 2019 00:00
Search period end: 23 November 2019 00:00
Orbit: 785 x 796 km, 98.9° (Epoch: 12 November)

Date Brightness Start Highest point End Pass type
(mag) Time Alt. Az. Time Alt. Az. Time Alt. Az.
13 Nov 10.7 04:40:27 10° ENE 04:43:11 14° E 04:45:54 10° SE visible
13 Nov 7.8 06:17:47 10° N 06:22:54 55° WNW 06:27:58 10° SSW visible
14 Nov 7.9 05:48:16 10° NNE 05:53:32 75° ESE 05:58:43 10° S visible
15 Nov 9.2 05:19:12 10° NNE 05:24:02 37° E 05:28:49 10° SSE visible
15 Nov 10.6 18:13:41 10° SW 18:17:31 21° W 18:21:22 10° NW visible
16 Nov 10.4 04:50:51 10° NE 04:54:25 19° E 04:57:59 10° SE visible
16 Nov 8.0 06:29:04 10° N 06:33:59 43° WNW 06:38:53 10° SW visible
16 Nov 9.3 17:43:03 10° S 17:47:55 41° W 17:52:51 10° NNW visible
17 Nov 7.6 05:59:25 10° NNE 06:04:41 86° WNW 06:09:53 10° SSW visible
18 Nov 8.7 05:30:11 10° NNE 05:35:13 47° E 05:40:13 10° S visible
18 Nov 10.7 18:25:38 10° SW 18:28:45 16° W 18:31:54 10° WNW visible
19 Nov 10.0 05:01:30 10° NE 05:05:40 24° E 05:09:47 10° SSE visible
19 Nov 9.8 17:54:31 10° SSW 17:59:07 32° W 18:03:47 10° NW visible
20 Nov 10.9 04:34:21 10° ENE 04:35:58 11° E 04:37:36 10° ESE visible
20 Nov 7.6 06:10:37 10° N 06:15:48 67° WNW 06:20:57 10° SSW visible
21 Nov 8.2 05:41:13 10° NNE 05:46:24 61° ESE 05:51:32 10° S visible
21 Nov 11.0 18:38:01 10° WSW 18:40:01 12° W 18:42:02 10° WNW visible
22 Nov 9.6 05:12:18 10° NE 05:16:53 30° E 05:21:24 10° SSE visible
22 Nov 10.2 18:06:07 10° SSW 18:10:20 25° W 18:14:37 10° NW visible
